Location: Unspecified
(52.4292°N, 19.3359°E)
Time: 00:27:18
(UTC+02:00)

SR - Pass Details

Date: 03 June 2024
Orbit: 580 x 858 km, 66.7° (Epoch: 12 June)

Event Time Altitude Azimuth Distance (km) Brightness Sun altitude
Rises 17:11:48 0° 244° (WSW) 3,130 ? 31.1°
Reaches altitude 10° 17:14:24 10° 253° (WSW) 2,163 ? 30.7°
Maximum altitude 17:18:56 37° 321° (NW) 1,033 ? 30.0°
Drops below altitude 10° 17:23:10 10° 29° (NNE) 2,019 ? 29.3°
Sets 17:25:31 0° 38° (NE) 2,893 ? 29.0°
